weather.gov     
National Weather Service

Regional Weather Roundup
NWS Homepage
This page is being discontinued on March 12, 2014.
The same data is available at this site. Please update your bookmarks.
Thank you, and we apologize for the inconvenience.
Please send an email to SR-SRH.Webmaster@noaa.gov with any concerns.


Current Version
Previous Version:    01  02  03  04  05  06  07  08  09  10  11  12  13  14  15  16  17  18  19  20  21  22  23  24  25  26  27  28  29  30  
   31  32  33  34  35  36  37  38  39  40  41  42  43  44  45  46  47  48  49  50  51  52  53  54  55  56  57  58  59  60  
[Printable]
195
ASUS43 KBIS 232120
RWRBIS

NWR BROADCAST TEXT
NATIONAL WEATHER SERVICE BISMARCK ND
400 PM CDT THU OCT 23 2014

NOTE: "FAIR" INDICATES FEW OR NO CLOUDS BELOW 12,000 FEET WITH NO
SIGNIFICANT WEATHER AND/OR OBSTRUCTIONS TO VISIBILITY.


CITY           SKY/WX    TMP DP  RH WIND       PRES   REMARKS
WILLISTON      CLOUDY    65  35  33 SW13      29.77F
MINOT          MOSUNNY   66  31  27 SW9       29.76S
MINOT AFB      MOSUNNY   66  36  33 S10       29.74F
BISMARCK       PTSUNNY   72  30  21 SW8       29.81F
DICKINSON      MOSUNNY   69  28  21 W17       29.81S
GARRISON         N/A     68  38  33 SW7       29.78F
HETTINGER ARPT MOSUNNY   68  24  19 SW14      29.86S
JAMESTOWN      SUNNY     70  34  26 W9        29.82S
BEACH            N/A     64  28  25 W17       29.83F
CARRINGTON     FAIR      68  36  30 SW8       29.81F
CROSBY         FAIR      63  32  31 SW17      29.73F
HARVEY         FAIR      68  32  26 SW14      29.79F
HAZEN          FAIR      72  32  23 SW13      29.79F
LINTON         FAIR      70  32  24 SW10      29.84S
MANDAN         FAIR      68  30  24 SW10      29.82F
OAKES            N/A     68  45  42 S15       29.85F
RUGBY          FAIR      66  34  30 SW13      29.76F
STANLEY        FAIR      64  32  29 SW10      29.76F
TIOGA          FAIR      64  30  27 W16G22    29.78F
$$

CITY           SKY/WX    TMP DP  RH WIND       PRES   REMARKS
GRAND FORKS    MOSUNNY   70  37  29 SW8       29.80F
GRAND FORKS AF SUNNY     71  38  30 SW10      29.80F
DEVILS LAKE    MOSUNNY   66  34  30 SW7       29.77F
FARGO          SUNNY     71  36  27 S17       29.84F
CANDO          FAIR      66  32  28 SW13      29.77F
CAVALIER       FAIR      66  36  32 SW6       29.77F
GRAFTON        FAIR      66  37  34 W13       29.78F
GWINNER        CLEAR     72  43  35 SW14      29.87S
LANGDON        FAIR      66  32  28 SW10      29.77F
ROLLA          FAIR      64  32  29 SW14      29.77F
WALHALLA         N/A     66  36  32 W8        29.77S
$$

CITY           SKY/WX    TMP DP  RH WIND       PRES   REMARKS
ABERDEEN       SUNNY     71  43  36 S14       29.88F
MOBRIDGE       MOSUNNY   69  42  37 SE10      29.84F
BUFFALO          N/A     68  22  17 SW14      29.82S
RAPID CITY     CLOUDY    71  29  21 E7        29.86F
GLASGOW        PTSUNNY   66  37  34 W10       29.76S
SIDNEY         MOSUNNY   64  36  34 S10       29.80S
WOLF POINT     MOSUNNY   67  38  34 W10       29.76F
GLENDIVE       PTSUNNY   64  34  32 SW7       29.83R
MILES CITY     PTSUNNY   70  33  25 W3        29.83F
BAKER          PTSUNNY   67  29  24 SW8       29.85F
$$

CITY           SKY/WX    TMP DP  RH WIND       PRES   REMARKS
BILLINGS       CLOUDY    69  29  22 SW10      29.85F
GREAT FALLS    FAIR      61  38  42 SW20G30   29.78F
REGINA         PTSUNNY   61  41  48 SW13      29.68R
ESTEVAN        CLOUDY    64  36  34 SW16      29.71F
$$





U.S. Dept. of Commerce
NOAA National Weather Service
1325 East West Highway
Silver Spring, MD 20910
E-mail: w-nws.webmaster@noaa.gov
Page last modified: May 16, 2007
NATIONAL WEATHER SERVICE: for Safety, for Work, for Fun - FOR LIFE